DLH577 FYWH-EDDF

Flight info

Callsign DLH577
Flight time N/A
Altitude 35000
Route DCT VEDRY UT943 KSA DCT BZ UG727 EBIMU DCT ENBUT UM998 CSO UA605 CIRTA DCT ERETI DCT OMARD DCT NOSTA DCT NOPMU DCT ABESI DCT LADOL T163 EMPAX EMPAX5C
Aircraft A343/H-SDE2E3FGHIJ3J5M1P2RWXYZ/LB1D1

Departure

Time 2026-05-08 03:07
Airport Hosea Kutako International Airport (FYWH)

Arrival

Time N/A
Airport Frankfurt Main Airport (EDDF)
Time Latitude Longitude Altitude Speed Heading
2026-05-08 02:29 -22.48599 17.46257 5573 ft 0 kts 296°
2026-05-08 02:57 -22.48598 17.46254 5573 ft 3 kts 296°
2026-05-08 02:57 -22.48564 17.46212 5574 ft 10 kts 331°
2026-05-08 02:57 -22.48498 17.46248 5571 ft 12 kts 63°
2026-05-08 02:58 -22.48456 17.46340 5571 ft 16 kts 63°
2026-05-08 02:58 -22.48399 17.46464 5570 ft 21 kts 64°
2026-05-08 02:58 -22.48336 17.46604 5569 ft 21 kts 64°
2026-05-08 02:58 -22.48275 17.46737 5569 ft 19 kts 63°
2026-05-08 02:59 -22.48218 17.46858 5568 ft 18 kts 63°
2026-05-08 02:59 -22.48166 17.46976 5567 ft 17 kts 65°
2026-05-08 02:59 -22.48120 17.47083 5568 ft 14 kts 65°
2026-05-08 02:59 -22.48079 17.47174 5567 ft 14 kts 64°
2026-05-08 03:00 -22.48034 17.47271 5566 ft 16 kts 63°
2026-05-08 03:00 -22.47984 17.47376 5565 ft 15 kts 63°
2026-05-08 03:00 -22.47936 17.47479 5564 ft 16 kts 63°
2026-05-08 03:00 -22.47902 17.47551 5562 ft 18 kts 63°
2026-05-08 03:01 -22.47838 17.47691 5556 ft 22 kts 64°
2026-05-08 03:01 -22.47773 17.47836 5549 ft 16 kts 64°
2026-05-08 03:01 -22.47742 17.47898 5548 ft 7 kts 59°
2026-05-08 03:01 -22.47704 17.47924 5546 ft 3 kts 355°
2026-05-08 03:02 -22.47672 17.47912 5547 ft 9 kts 340°
2026-05-08 03:02 -22.47606 17.47928 5545 ft 10 kts 46°
2026-05-08 03:02 -22.47586 17.47970 5545 ft 9 kts 64°
2026-05-08 03:02 -22.47559 17.48032 5545 ft 9 kts 65°
2026-05-08 03:03 -22.47530 17.48099 5544 ft 11 kts 65°
2026-05-08 03:03 -22.47491 17.48183 5536 ft 15 kts 63°
2026-05-08 03:03 -22.47437 17.48301 5533 ft 20 kts 64°
2026-05-08 03:03 -22.47370 17.48452 5527 ft 25 kts 64°
2026-05-08 03:04 -22.47290 17.48625 5520 ft 26 kts 63°
2026-05-08 03:04 -22.47228 17.48790 5513 ft 18 kts 88°
2026-05-08 03:04 -22.47271 17.48897 5508 ft 12 kts 108°
2026-05-08 03:04 -22.47233 17.48960 5506 ft 11 kts 15°
2026-05-08 03:05 -22.47174 17.48939 5507 ft 7 kts 330°
2026-05-08 03:05 -22.47161 17.48911 5507 ft 1 kts 270°
2026-05-08 03:05 -22.47161 17.48907 5508 ft 1 kts 266°
2026-05-08 03:05 -22.47166 17.48896 5508 ft 0 kts 244°
2026-05-08 03:06 -22.47170 17.48886 5508 ft 7 kts 244°
2026-05-08 03:06 -22.47252 17.48708 5517 ft 50 kts 244°
2026-05-08 03:06 -22.47476 17.48220 5535 ft 94 kts 243°
2026-05-08 03:07 -22.47828 17.47453 5561 ft 132 kts 244°
2026-05-08 03:07 -22.48287 17.46451 5608 ft 161 kts 244°
2026-05-08 03:07 -22.48790 17.45426 6120 ft 154 kts 244°
2026-05-08 03:07 -22.49290 17.44362 6406 ft 167 kts 245°
2026-05-08 03:08 -22.49849 17.43193 6666 ft 181 kts 245°
2026-05-08 03:08 -22.50466 17.41956 6792 ft 194 kts 245°
2026-05-08 03:08 -22.51001 17.40561 6943 ft 208 kts 265°
2026-05-08 03:08 -22.50895 17.38962 7114 ft 222 kts 283°
2026-05-08 03:09 -22.50472 17.37259 7237 ft 246 kts 287°
2026-05-08 03:09 -22.49961 17.35419 7602 ft 262 kts 287°
2026-05-08 03:09 -22.49422 17.33523 8117 ft 268 kts 287°
2026-05-08 03:09 -22.48862 17.31599 8783 ft 268 kts 287°
2026-05-08 03:10 -22.48292 17.29684 9467 ft 267 kts 287°
2026-05-08 03:10 -22.47710 17.27777 10133 ft 267 kts 287°
2026-05-08 03:10 -22.47108 17.25828 10438 ft 280 kts 287°
2026-05-08 03:10 -22.46469 17.23777 10655 ft 295 kts 287°
2026-05-08 03:11 -22.45794 17.21624 10830 ft 310 kts 287°
2026-05-08 03:11 -22.45082 17.19366 11027 ft 324 kts 288°